GW3831 Weather Reports


time (UTC)temp
C
wind
direction
speed
KPH
gust
KPH
rain 1hr
cm
rain 24hr
cm
rain mn
cm
humidity
%
barometer
mb
20260507211604 12 135 0.0 0.0 0.00 0.00 0.00 79 1017.3
20260507205604 12 315 0.0 0.0 0.00 0.00 0.00 80 1017.3
20260507205104 12 315 0.0 0.0 0.00 0.00 0.00 79 1017.3
20260507204604 12 315 0.0 0.0 0.00 0.00 0.00 77 1017.3
20260507204104 12 310 0.0 0.0 0.00 0.00 0.00 76 1017.2
20260507203604 12 309 0.0 0.0 0.00 0.00 0.00 76 1017.0
20260507203104 12 309 0.0 0.0 0.00 0.00 0.00 76 1017.0
20260507202604 12 309 0.0 0.0 0.00 0.00 0.00 76 1017.2
20260507201605 12 315 0.0 0.0 0.00 0.00 0.00 77 1017.2
20260507201105 12 315 0.0 0.0 0.00 0.00 0.00 77 1016.9
20260507200604 12 315 0.0 0.0 0.00 0.00 0.00 76 1016.7
20260507200105 12 304 0.0 0.0 0.00 0.00 0.00 74 1016.9
20260507195606 12 336 0.0 0.0 0.00 0.00 0.00 74 1016.6
20260507195104 12 336 0.0 0.0 0.00 0.00 0.00 74 1016.7
20260507194606 12 336 0.0 0.0 0.00 0.00 0.00 74 1016.6
20260507194104 12 336 0.0 0.0 0.00 0.00 0.00 72 1016.6
20260507193605 13 336 0.0 0.0 0.00 0.00 0.00 72 1016.3
20260507193105 13 336 0.0 0.0 0.00 0.00 0.00 70 1016.6
20260507192604 13 309 0.0 0.0 0.00 0.00 0.00 70 1016.6
20260507192104 13 309 0.0 1.6 0.00 0.00 0.00 68 1016.6
20260507191604 13 322 1.6 1.6 0.00 0.00 0.00 67 1016.6
20260507191106 13 321 0.0 0.0 0.00 0.00 0.00 67 1016.6
20260507190604 13 326 0.0 0.0 0.00 0.00 0.00 67 1016.6
20260507190104 13 297 0.0 0.0 0.00 0.00 0.00 66 1016.5
20260507185105 13 297 0.0 0.0 0.00 0.00 0.00 65 1016.5
20260507184604 13 297 0.0 0.0 0.00 0.00 0.00 65 1016.3
20260507184105 13 297 0.0 0.0 0.00 0.00 0.00 67 1016.4
20260507183104 13 300 0.0 0.0 0.00 0.00 0.00 65 1016.3
20260507182604 13 292 0.0 0.0 0.00 0.00 0.00 66 1016.4
20260507181604 14 298 0.0 1.6 0.00 0.00 0.00 62 1016.5
20260507181104 14 308 0.0 0.0 0.00 0.00 0.00 61 1016.3
20260507180607 14 309 0.0 1.6 0.00 0.00 0.00 62 1016.5
20260507180104 14 317 0.0 0.0 0.00 0.00 0.00 63 1016.3
20260507175104 14 309 0.0 1.6 0.00 0.00 0.00 61 1016.5
20260507173105 14 288 0.0 1.6 0.00 0.00 0.00 60 1016.4
20260507172606 14 299 0.0 1.6 0.00 0.00 0.00 60 1016.3
20260507172106 14 283 0.0 0.0 0.00 0.00 0.00 58 1016.2
20260507171104 15 300 0.0 1.6 0.00 0.00 0.00 59 1016.5
20260507170605 15 228 0.0 1.6 0.00 0.00 0.00 59 1016.3
20260507170104 14 314 1.6 3.2 0.00 0.00 0.00 59 1016.3
20260507165604 15 310 0.0 1.6 0.00 0.00 0.00 57 1016.4
20260507165105 15 333 0.0 1.6 0.00 0.00 0.00 57 1016.3
20260507164605 15 220 0.0 3.2 0.00 0.00 0.00 54 1016.3
20260507164105 15 139 1.6 3.2 0.00 0.00 0.00 53 1016.3
20260507163604 15 144 1.6 3.2 0.00 0.00 0.00 53 1016.3
20260507163104 15 128 3.2 4.8 0.00 0.00 0.00 53 1016.3
20260507162604 15 90 1.6 1.6 0.00 0.00 0.00 54 1016.3
20260507162104 15 112 0.0 3.2 0.00 0.00 0.00 55 1016.5
20260507161604 15 87 1.6 3.2 0.00 0.00 0.00 53 1016.3
20260507161104 15 160 1.6 3.2 0.00 0.00 0.00 52 1016.3
20260507160105 15 85 1.6 4.8 0.00 0.00 0.00 53 1016.3
20260507155604 15 139 1.6 4.8 0.00 0.00 0.00 53 1016.3
20260507155104 15 120 1.6 4.8 0.00 0.00 0.00 53 1016.3
20260507154605 15 80 1.6 4.8 0.00 0.00 0.00 52 1016.3
20260507154105 15 147 1.6 8.0 0.00 0.00 0.00 53 1016.3
20260507153604 15 131 3.2 8.0 0.00 0.00 0.00 52 1016.3
20260507153104 15 87 1.6 3.2 0.00 0.00 0.00 52 1016.3
20260507151604 15 203 1.6 4.8 0.00 0.00 0.00 53 1016.5
20260507151104 15 84 3.2 4.8 0.00 0.00 0.00 53 1016.3
20260507150604 15 142 1.6 4.8 0.00 0.00 0.00 52 1016.2
20260507150104 15 356 0.0 3.2 0.00 0.00 0.00 54 1016.0
20260507145604 15 276 0.0 3.2 0.00 0.00 0.00 54 1016.0
20260507145104 15 96 1.6 3.2 0.00 0.00 0.00 54 1016.3
20260507144604 15 87 0.0 3.2 0.00 0.00 0.00 55 1016.3
20260507144104 15 287 1.6 3.2 0.00 0.00 0.00 54 1016.2
20260507143604 15 322 0.0 3.2 0.00 0.00 0.00 55 1016.3
20260507142104 15 310 3.2 4.8 0.00 0.00 0.00 56 1016.3
20260507141605 15 333 1.6 3.2 0.00 0.00 0.00 55 1016.4
20260507141105 15 316 3.2 3.2 0.00 0.00 0.00 57 1016.3
20260507140604 15 304 1.6 4.8 0.00 0.00 0.00 57 1016.3
20260507140105 15 303 1.6 3.2 0.00 0.00 0.00 56 1016.4
20260507135104 15 273 1.6 4.8 0.00 0.00 0.00 55 1016.6
20260507134605 15 190 1.6 4.8 0.00 0.00 0.00 55 1016.5
20260507134104 15 113 1.6 4.8 0.00 0.00 0.00 54 1016.4
20260507133605 15 264 1.6 3.2 0.00 0.00 0.00 56 1016.5
20260507132605 15 313 3.2 3.2 0.00 0.00 0.00 56 1016.6
20260507131604 15 271 1.6 3.2 0.00 0.00 0.00 56 1016.6
20260507131104 15 338 1.6 3.2 0.00 0.00 0.00 57 1016.3
20260507130604 15 313 0.0 3.2 0.00 0.00 0.00 56 1016.5
20260507130104 15 340 1.6 3.2 0.00 0.00 0.00 56 1016.6
20260507125605 15 303 1.6 3.2 0.00 0.00 0.00 58 1016.3
20260507125105 15 306 1.6 3.2 0.00 0.00 0.00 58 1016.4
20260507124604 15 313 1.6 4.8 0.00 0.00 0.00 57 1016.5
20260507124104 15 305 1.6 4.8 0.00 0.00 0.00 57 1016.6
20260507123604 15 305 1.6 3.2 0.00 0.00 0.00 55 1016.6
20260507123104 15 281 1.6 3.2 0.00 0.00 0.00 55 1016.3
20260507122604 15 308 0.0 3.2 0.00 0.00 0.00 55 1016.3
20260507121606 15 333 0.0 3.2 0.00 0.00 0.00 56 1016.4
20260507121105 15 307 3.2 4.8 0.00 0.00 0.00 53 1016.3
20260507120604 15 305 3.2 4.8 0.00 0.00 0.00 54 1016.3
20260507115604 15 326 3.2 8.0 0.00 0.00 0.00 57 1016.3
20260507115104 15 319 1.6 4.8 0.00 0.00 0.00 56 1016.3
20260507114604 15 298 1.6 3.2 0.00 0.00 0.00 56 1016.2
20260507114104 15 278 1.6 4.8 0.00 0.00 0.00 57 1016.3
20260507113604 15 286 1.6 4.8 0.00 0.00 0.00 55 1016.3
20260507113104 15 267 0.0 8.0 0.00 0.00 0.00 57 1016.2
20260507111604 15 314 3.2 8.0 0.00 0.00 0.00 57 1016.3
20260507111104 15 283 0.0 4.8 0.00 0.00 0.00 59 1016.3
20260507110604 15 8 1.6 4.8 0.00 0.00 0.00 58 1016.3
20260507105604 15 280 3.2 9.7 0.00 0.00 0.00 57 1016.3
20260507104607 16 295 3.2 9.7 0.00 0.00 0.00 52 1016.3
20260507104104 17 126 1.6 4.8 0.00 0.00 0.00 50 1016.3
20260507103104 17 278 0.0 4.8 0.00 0.00 0.00 53 1016.3
20260507102604 16 330 3.2 4.8 0.00 0.00 0.00 52 1016.3
20260507102105 16 319 3.2 4.8 0.00 0.00 0.00 54 1016.3
20260507101604 16 297 3.2 11.3 0.00 0.00 0.00 54 1016.3
20260507101104 16 311 4.8 8.0 0.00 0.00 0.00 52 1016.2
20260507100604 16 312 1.6 11.3 0.00 0.00 0.00 57 1016.3
20260507100104 15 327 4.8 14.5 0.00 0.00 0.00 57 1016.3
20260507095604 15 289 1.6 3.2 0.00 0.00 0.00 60 1016.3
20260507095105 15 291 1.6 4.8 0.00 0.00 0.00 58 1016.3
20260507094605 15 311 4.8 9.7 0.00 0.00 0.00 58 1016.0
20260507094105 16 333 3.2 9.7 0.00 0.00 0.00 53 1016.3
20260507093104 16 60 3.2 9.7 0.00 0.00 0.00 55 1016.0
20260507092604 16 296 3.2 8.0 0.00 0.00 0.00 60 1016.2
20260507092106 17 145 3.2 8.0 0.00 0.00 0.00 53 1016.0
20260507091604 16 208 1.6 12.9 0.00 0.00 0.00 58 1016.2
20260507091104 16 96 3.2 12.9 0.00 0.00 0.00 59 1016.2
20260507090604 15 271 1.6 8.0 0.00 0.00 0.00 61 1015.9
20260507085604 15 337 3.2 8.0 0.00 0.00 0.00 61 1016.3
20260507084604 14 303 1.6 8.0 0.00 0.00 0.00 62 1015.9
20260507084104 15 278 1.6 4.8 0.00 0.00 0.00 62 1015.9
20260507083605 13 290 3.2 4.8 0.00 0.00 0.00 64 1015.9
20260507082604 13 5 3.2 9.7 0.00 0.00 0.00 63 1015.9
20260507082104 13 328 3.2 4.8 0.00 0.00 0.00 66 1016.2
20260507081104 14 313 3.2 4.8 0.00 0.00 0.00 63 1016.0
20260507075605 13 325 1.6 8.0 0.00 0.00 0.00 67 1015.9
20260507075104 13 353 3.2 8.0 0.00 0.00 0.00 64 1015.9
20260507074604 14 283 1.6 3.2 0.00 0.00 0.00 64 1015.9
20260507074104 14 320 0.0 3.2 0.00 0.00 0.00 63 1015.9
20260507073104 12 308 1.6 8.0 0.00 0.00 0.00 68 1015.9
20260507072604 12 357 3.2 8.0 0.00 0.00 0.00 69 1015.6
20260507071604 12 319 1.6 9.7 0.00 0.00 0.00 70 1015.9
20260507070604 12 295 1.6 3.2 0.00 0.00 0.00 70 1015.9
20260507070106 11 304 1.6 3.2 0.00 0.00 0.00 72 1015.9
20260507065604 11 302 1.6 4.8 0.00 0.00 0.00 73 1015.8
20260507064105 11 299 0.0 3.2 0.00 0.00 0.00 71 1015.6
20260507063105 11 317 0.0 3.2 0.00 0.00 0.00 73 1015.6
20260507062604 11 239 0.0 3.2 0.00 0.00 0.00 74 1015.6
20260507061104 10 161 0.0 3.2 0.00 0.00 0.00 81 1015.5
20260507060604 9 215 1.6 3.2 0.00 0.00 0.00 83 1015.6
20260507060104 9 303 1.6 3.2 0.00 0.00 0.00 83 1015.3
20260507055104 9 311 0.0 3.2 0.00 0.00 0.00 84 1015.5
20260507054605 8 235 1.6 3.2 0.00 0.00 0.00 84 1015.2
20260507054104 8 274 1.6 3.2 0.00 0.00 0.00 84 1015.2
20260507053104 8 314 1.6 3.2 0.00 0.00 0.00 85 1015.3
20260507052604 8 92 0.0 3.2 0.00 0.00 0.00 86 1015.2
20260507051606 8 195 1.6 4.8 0.00 0.00 0.00 87 1015.2
20260507051104 8 229 1.6 3.2 0.00 0.00 0.00 87 1015.0
20260507050604 8 303 0.0 4.8 0.00 0.00 0.00 87 1014.9
20260507045604 8 143 0.0 1.6 0.00 0.00 0.00 87 1014.7
20260507044604 8 296 0.0 3.2 0.00 0.00 0.00 88 1014.6
20260507043604 8 285 1.6 3.2 0.00 0.00 0.00 88 1014.3
20260507043104 8 317 1.6 3.2 0.00 0.00 0.00 88 1014.6
20260507042604 8 217 0.0 3.2 0.00 0.00 0.00 88 1014.3
20260507042104 8 298 1.6 3.2 0.00 0.00 0.00 88 1014.2
20260507041606 8 8 0.0 3.2 0.00 0.00 0.00 88 1014.2
20260507040604 8 286 1.6 1.6 0.00 0.00 0.00 88 1014.2
20260507040104 8 204 0.0 3.2 0.00 0.00 0.00 88 1014.2
20260507035604 8 297 0.0 1.6 0.00 0.00 0.00 88 1014.2
20260507035104 8 310 0.0 1.6 0.00 0.00 0.00 88 1014.3
20260507034104 8 312 0.0 1.6 0.00 0.00 0.00 88 1014.2
20260507033104 8 301 0.0 3.2 0.00 0.00 0.00 88 1014.1
20260507032605 8 350 0.0 0.0 0.00 0.00 0.00 87 1014.2
20260507032104 8 352 0.0 1.6 0.00 0.00 0.00 87 1014.1
20260507031605 8 345 0.0 3.2 0.00 0.00 0.00 87 1014.0
20260507031104 8 321 1.6 3.2 0.00 0.00 0.00 87 1014.0
20260507030606 8 353 0.0 3.2 0.00 0.00 0.00 87 1014.2
20260507025604 9 326 0.0 0.0 0.00 0.00 0.00 87 1014.2
20260507025104 9 209 0.0 1.6 0.00 0.00 0.00 86 1014.0
20260507024605 9 341 0.0 1.6 0.00 0.00 0.00 86 1014.1
20260507024104 9 327 0.0 1.6 0.00 0.00 0.00 86 1014.1
20260507023604 9 313 0.0 3.2 0.00 0.00 0.00 86 1013.9
20260507023105 9 315 0.0 3.2 0.00 0.00 0.00 85 1013.9
20260507022604 9 339 1.6 3.2 0.00 0.00 0.00 85 1013.9
20260507022104 9 324 0.0 3.2 0.00 0.00 0.00 85 1013.9
20260507021604 9 287 0.0 3.2 0.00 0.00 0.00 85 1013.9
20260507021104 9 336 0.0 0.0 0.00 0.00 0.00 84 1013.9
20260507020104 9 343 0.0 3.2 0.00 0.00 0.00 84 1013.8
20260507015105 9 294 0.0 3.2 0.00 0.00 0.00 83 1013.5
20260507014604 9 305 0.0 1.6 0.00 0.00 0.00 83 1013.5
20260507014105 10 304 0.0 1.6 0.00 0.00 0.00 83 1013.5
20260507013605 10 354 0.0 1.6 0.00 0.00 0.00 83 1013.5
20260507013105 10 310 0.0 0.0 0.00 0.00 0.00 83 1013.5
20260507012604 10 322 0.0 0.0 0.00 0.00 0.00 83 1013.5
20260507011605 10 50 0.0 0.0 0.00 0.00 0.00 83 1013.5
20260507011104 10 352 0.0 1.6 0.00 0.00 0.00 83 1013.5
20260507010105 10 290 0.0 0.0 0.00 0.00 0.00 83 1013.5
20260507005604 10 217 0.0 0.0 0.00 0.00 0.00 84 1013.5
20260507005104 10 25 0.0 0.0 0.00 0.00 0.00 84 1013.5
20260507004605 10 25 0.0 0.0 0.00 0.00 0.00 84 1013.5
20260507004104 10 246 0.0 0.0 0.00 0.00 0.00 84 1013.5
20260507003605 10 246 0.0 0.0 0.00 0.00 0.00 85 1013.5
20260507003104 10 25 0.0 0.0 0.00 0.00 0.00 85 1013.5
20260507002104 10 328 0.0 1.6 0.00 0.00 0.00 82 1013.2
20260507000605 10 326 0.0 0.0 0.00 0.00 0.00 83 1013.3
20260507000104 10 326 0.0 0.0 0.00 0.00 0.00 83 1013.3
20260506235104 10 326 0.0 0.0 0.00 0.00 0.00 83 1013.3
20260506234606 10 326 0.0 0.0 0.00 0.00 0.00 83 1013.5
20260506234106 10 326 0.0 0.0 0.00 0.00 0.00 82 1013.5
20260506233604 10 326 0.0 0.0 0.00 0.00 0.00 82 1013.2
20260506233104 10 11 0.0 0.0 0.00 0.00 0.00 81 1013.4
20260506232605 10 315 0.0 0.0 0.00 0.00 0.00 81 1013.3
20260506232104 10 309 0.0 0.0 0.00 0.00 0.00 82 1013.2
20260506231604 10 309 0.0 0.0 0.00 0.00 0.00 82 1013.2
20260506231104 10 309 0.0 0.0 0.00 0.00 0.00 82 1013.2
20260506230604 10 230 0.0 0.0 0.00 0.00 0.00 82 1012.9
20260506225604 10 280 0.0 0.0 0.00 0.00 0.00 83 1013.0
20260506225104 10 309 0.0 0.0 0.00 0.00 0.00 82 1013.1
20260506224604 10 325 0.0 0.0 0.00 0.00 0.00 82 1013.2
20260506223604 10 315 0.0 0.0 0.00 0.00 0.00 81 1013.1
20260506223104 10 327 0.0 0.0 0.00 0.00 0.00 80 1013.0
20260506222604 10 320 0.0 0.0 0.00 0.00 0.00 81 1012.9
20260506222104 10 333 0.0 0.0 0.00 0.00 0.00 80 1012.9
20260506221604 10 333 0.0 0.0 0.00 0.00 0.00 80 1012.9
20260506221105 10 326 0.0 0.0 0.00 0.00 0.00 80 1012.9
20260506220604 10 326 0.0 0.0 0.00 0.00 0.00 79 1012.9
20260506220105 10 326 0.0 0.0 0.00 0.00 0.00 78 1012.9
20260506215604 10 318 0.0 0.0 0.00 0.00 0.00 77 1012.9
20260506214605 10 230 0.0 0.0 0.00 0.00 0.00 77 1012.9
20260506214106 10 230 0.0 0.0 0.00 0.00 0.00 77 1012.9
20260506213604 10 312 0.0 0.0 0.00 0.00 0.00 76 1012.9